DELTA 1 DEB, 7158

Orbit data source: Space-Track

DELTA 1 DEB, 7158 is space debris in SSO originally from a launch on Tue, 06 Nov 1973 UTC launched from the Air Force Western Test Range (AFWTR). Debris objects in space refer to the collection of defunct objects orbiting the Earth. Examples of debris include non-operational satellites, rocket bodies, and fragments generated from explosions, collisions, or faulty payload assembly.

Loading next visibility...
Identifier
7158, 1973-086DW
Orbit
SSO
Country
Flag of USUS
Related business
Manufacturer
Unknown
Mission
Spacecraft
Bus & Motor
Unknown
Mass
Unknown
Launch date (UTC)
1973-11-06 (52 years ago)
Launch vehicle
Unknown
Launch site
Air Force Western Test Range (AFWTR)
Object type
Payload
Rocket body
Debris
Shape & HBR
Unknown shape, 0.1 m
Radar Cross Section
Small (<0.1 m²)

Expand to show TLE details & history
Last TLE update: 1 day ago

TLE from 1 day ago
0 DELTA 1 DEB
1  7158U 73086DW  26122.05048828 -.00000039  00000-0  60994-4 0  9998
2  7158 102.4458 153.2048 0041311 187.8205 199.2077 12.31771915359448
Epoch: 2026-05-02T01:12Z
TLE epoch observation values (Epoch: 2026-05-02T01:12:42.187Z)
Latitude
26.22673°
Longitude
-91.15651°
Altitude
1,575.436 km
Speed
7.069 km/s
True Right ascension
09h 47m 58s
True Declination
26° 06' 17"
Sunlit
Object was in daylight at epoch
Visualization orbit readout
Latitude
Unknown
Longitude
Unknown
Altitude
Unknown
Speed
Unknown
Apparent Right ascension
Unknown
Apparent Declination
Unknown
Sunlit
N/A
Visualization observer readout
Local Sidereal Time
10:22:12
Azimuth
Unknown
Elevation
Unknown
Doppler factor
Unknown
Orbital elements
Apogee altitude
1,571.997 km
Perigee altitude
1,506.582 km
Semi-major axis
7,917.426 km
Eccentricity
0.00413
Inclination
102.4458°
RAAN
153.2048°
Arg. of periapsis
187.8205°
True anomaly
199.05271°
Mean anomaly
199.2077°
Eccentric anomaly
199.13013°
Mean motion
3.08083 °/min
Orbital period
116.85 mins
BSTAR
0.000060994
Loading maneuver chart data...
Computing Atmospheric mass density...
Loading historical data...
Loading historical data...
Loading historical data...
Loading historical data...
Loading historical data...
Loading historical data...
Loading historical data...

Documentation

Showing up to 5 results
|